Dewpoint
15 16 17 17 18 18 18 18 18 17 17 17 17 16 16 16 15 15 15 14 15 14 15 15 13 13 14 14 14 13 15 15 15 15 15 15 15 14 13 13 13 14 13
16 16 17 17 18 17 18 18 17 17 18 17 17 17 17 16 16 15 15 13 13 14 15 15 14 14 13 13 14 15 14 15 15 15 15 15 15 15 14 13 14 15 14
15 16 16 17 18 17 17 17 17 17 17 17 17 17 16 15 15 15 15 14 14 15 15 14 13 14 14 14 14 14 15 15 15 15 15 15 15 15 16 15 14 15 14
14 15 16 16 17 18 17 16 17 17 17 17 16 16 16 16 15 15 14 15 15 15 14 14 12 12 13 13 14 15 15 15 15 15 15 14 15 14 15 15 15 15 15
14 15 16 17 17 17 17 16 16 17 16 16 16 16 16 15 14 15 15 15 15 14 14 11 13 13 15 15 15 15 15 15 15 15 15 13 12 14 15 14 14 15 15
14 15 17 16 16 17 17 17 17 16 16 16 15 15 16 15 15 14 15 15 15 15 15 13 12 11 14 15 15 16 15 15 15 15 15 13 14 14 13 14 15 15 15
14 16 17 16 17 17 17 15 16 16 16 17 17 16 16 15 15 15 15 15 15 15 16 14 14 11 12 14 15 16 16 15 15 15 14 14 14 15 15 15 15 15 15
15 16 17 17 17 17 17 16 17 17 16 16 16 16 16 16 16 16 16 16 16 16 16 15 14 12 11 13 15 15 15 15 15 14 13 14 14 15 15 15 15 14 14
17 16 16 17 17 17 17 17 17 17 16 15 16 16 16 16 15 16 16 16 14 15 16 15 14 15 13 11 12 14 15 15 14 14 14 15 14 14 14 15 16 15 15
17 17 17 16 16 17 17 17 16 16 17 16 16 16 13 13 15 15 15 16 16 15 15 14 14 15 14 14 12 11 11 12 13 13 13 13 13 13 14 14 13 14 13
17 18 18 18 17 15 15 15 15 16 17 17 17 15 14 13 9 12 14 15 15 16 15 12 13 14 14 13 12 13 12 11 12 13 13 13 12 12 11 8 7 13 14
18 18 18 18 18 18 17 17 17 17 17 16 15 15 14 14 14 13 12 14 14 16 14 11 14 14 14 14 14 13 13 12 12 11 11 11 9 6 4 5 6 7 14
19 19 19 19 19 18 19 18 18 17 17 16 13 11 14 13 13 13 9 14 14 14 15 13 13 12 13 13 14 14 13 12 12 12 11 10 8 5 6 7 10 7 10
18 19 19 19 18 18 18 18 18 17 16 16 15 13 14 13 14 13 12 12 10 9 13 13 13 12 13 13 12 11 12 13 13 13 12 11 9 5 8 10 10 12 8
18 18 18 18 18 17 17 17 16 16 16 17 16 14 13 13 14 12 11 10 10 12 12 12 12 13 11 11 13 13 12 12 12 12 13 12 10 8 5 8 8 11 11
14 15 15 15 14 14 13 13 14 14 15 16 15 14 15 14 14 13 13 13 13 11 12 12 12 13 13 12 11 11 12 12 12 12 13 13 12 10 6 7 8 11 12
12 13 14 14 14 14 14 14 14 14 14 13 14 13 15 15 15 15 14 13 13 13 13 13 13 13 13 13 13 11 10 11 12 12 12 11 9 9 7 7 9 12 12
11 11 12 13 15 15 15 15 14 14 14 14 14 14 14 14 14 14 13 13 13 14 14 13 14 14 14 13 12 10 10 12 13 11 11 10 8 9 8 6 7 11 12
13 13 13 13 13 13 14 14 14 14 14 13 13 13 13 13 12 13 13 12 13 14 14 14 13 14 12 11 11 12 12 12 13 12 12 11 10 9 8 8 10 11 12
12 12 12 13 13 13 13 13 13 12 13 13 12 10 10 9 9 10 10 10 11 12 13 13 13 13 12 12 12 13 13 12 12 13 11 11 10 9 8 6 9 11 10
12 11 12 12 11 12 12 13 12 12 12 12 12 11 11 10 8 8 9 8 9 10 11 13 13 12 13 12 12 12 13 12 12 12 12 12 10 9 8 4 7 7 10
12 11 11 12 13 13 12 12 13 12 12 12 12 12 11 11 9 8 7 7 7 8 9 11 12 12 12 12 12 12 11 10 11 11 12 10 9 8 9 8 6 4 4
11 10 10 11 11 10 11 11 12 13 13 12 11 12 12 11 11 10 10 8 7 8 8 9 9 9 9 10 9 9 9 9 9 9 9 8 8 7 7 7 7 7 9
8 9 8 8 10 8 8 8 9 10 11 11 11 11 11 12 11 10 10 10 10 9 9 7 7 8 8 8 9 9 9 9 9 8 8 8 7 6 6 7 8 8 7
9 8 8 7 9 10 8 7 7 8 6 6 8 8 8 8 8 5 3 2 2 6 10 9 9 9 9 8 8 9 9 9 8 8 8 7 7 8 8 8 7 7 8
4 4 3 3 3 4 4 4 4 5 8 6 5 5 7 7 6 6 6 5 4 3 5 8 9 8 9 8 7 8 9 9 9 9 9 8 8 8 8 8 8 8 8
Wind_Speed
30 26 27 23 20 17 19 20 21 21 22 24 21 19 19 17 15 16 17 17 18 17 16 17 19 21 23 22 22 22 25 27 32 26 21 23 22 25 31 32 32 30 28
26 21 20 16 15 15 18 19 19 18 20 20 20 20 17 15 15 15 14 14 15 15 14 17 20 20 23 24 26 27 27 29 28 26 25 23 23 21 28 34 32 32 31
21 17 16 14 16 15 16 14 14 16 18 17 18 16 14 13 13 14 14 14 14 14 14 16 18 22 24 23 25 29 30 27 28 26 27 27 26 27 24 28 37 34 32
16 15 15 15 15 15 14 14 13 13 14 15 15 14 12 11 13 14 14 14 14 14 13 14 17 22 25 26 24 23 27 27 28 27 27 26 31 22 29 28 29 38 36
16 16 14 13 13 15 14 14 13 13 12 12 13 13 12 12 12 13 13 13 13 12 12 12 14 14 11 13 16 20 24 27 26 26 28 25 28 25 26 33 31 33 40
17 16 13 11 13 13 13 15 15 13 12 11 12 12 13 13 11 11 11 12 13 10 9 12 13 12 7 8 11 13 17 19 21 25 25 25 19 19 17 27 33 29 32
18 17 17 12 13 14 12 11 13 11 13 14 12 12 14 12 11 11 11 12 12 12 11 10 10 10 5 4 8 12 14 16 18 21 26 23 20 19 16 17 27 28 29
18 19 17 16 15 15 14 13 11 11 13 14 13 11 12 14 13 14 15 15 20 18 15 13 11 9 5 2 5 7 11 14 19 23 21 19 18 20 15 24 19 20 21
19 18 18 18 18 18 18 15 15 15 15 16 13 13 14 14 16 17 18 20 18 20 19 17 13 11 8 4 4 9 13 16 18 19 14 11 15 14 13 15 18 19 21
15 14 14 15 18 21 20 19 20 20 19 19 18 19 16 17 18 18 21 21 20 19 21 21 18 15 12 10 9 9 10 11 13 15 16 17 12 12 15 14 13 18 22
7 7 7 8 9 15 19 20 20 20 20 21 24 21 21 18 21 22 19 23 24 22 24 24 19 16 14 12 11 13 11 10 12 13 13 15 17 17 17 16 19 21 27
12 11 11 10 8 10 12 15 17 21 23 25 23 22 19 19 17 21 23 22 22 22 24 24 24 21 17 15 15 12 12 14 14 14 16 17 18 17 18 19 20 22 23
16 14 12 12 12 13 15 18 20 22 26 28 26 25 24 21 21 19 26 23 19 21 21 24 29 23 24 21 18 17 16 15 16 17 16 17 16 14 14 16 15 20 24
13 16 16 15 14 14 17 17 18 21 25 29 30 28 25 22 19 20 21 24 22 22 19 22 30 33 25 20 21 21 24 19 17 17 18 17 17 18 19 17 16 15 19
12 14 14 12 12 12 12 12 13 14 14 20 25 22 18 20 21 20 15 23 25 24 22 26 31 32 32 29 25 24 24 24 20 20 19 19 19 20 21 21 19 22 21
8 9 8 7 7 6 5 4 4 6 9 15 20 25 21 16 20 23 20 22 22 24 26 32 35 34 27 28 25 23 23 24 22 22 22 22 23 22 21 20 21 21 26
8 7 6 6 6 6 3 2 2 4 5 7 13 15 16 19 22 22 22 25 29 31 31 28 22 24 26 27 25 21 22 20 18 19 21 20 21 23 22 20 19 21 25
7 6 5 6 8 7 5 5 4 5 3 3 4 3 6 11 14 17 17 17 17 18 20 16 14 18 22 21 20 21 21 20 18 17 16 16 15 15 17 20 20 24 26
5 4 3 3 4 4 6 6 5 3 3 2 4 6 7 9 11 12 12 13 12 14 16 16 18 20 18 16 18 20 21 22 23 22 23 22 20 14 15 18 20 20 23
5 4 5 6 6 5 3 3 2 3 2 2 1 3 4 4 3 5 7 10 13 15 16 18 20 23 20 21 23 23 27 26 26 25 20 23 25 21 19 18 17 19 22
5 2 7 5 3 3 2 2 3 4 3 1 3 5 6 7 6 6 5 5 5 7 14 20 20 18 18 18 19 21 24 25 23 25 29 26 25 20 20 18 18 22 24
4 4 1 4 5 1 4 4 4 3 4 2 2 3 5 7 8 9 8 6 6 3 3 7 14 16 17 17 17 17 14 10 11 18 23 20 16 16 15 14 16 20 21
6 5 6 9 9 6 6 2 3 5 4 2 2 3 3 3 5 8 10 12 10 8 7 6 4 2 4 5 6 4 4 7 7 7 11 13 16 18 18 18 19 20 21
8 10 9 9 9 11 13 14 12 9 4 1 2 3 4 2 3 6 9 9 9 9 9 7 5 3 3 2 3 5 7 9 11 14 16 16 18 18 19 19 20 20 21
9 8 9 7 9 8 8 10 12 12 14 14 12 12 13 11 8 9 10 13 14 9 6 5 5 5 6 5 6 7 8 9 11 12 15 17 20 23 25 26 26 25 27
17 15 14 13 11 13 12 11 10 5 7 8 10 10 6 5 4 7 8 10 11 10 7 6 7 9 10 10 9 7 8 9 13 16 20 22 24 25 27 27 29 30 26
Wind_Direction
239 242 243 242 239 237 236 241 248 245 247 251 254 252 256 252 242 243 241 245 241 237 248 248 242 242 251 248 249 251 248 243 242 247 246 241 238 233 226 223 226 233 237
239 237 237 234 226 228 232 239 243 243 245 245 250 250 246 244 246 243 242 237 237 245 247 248 250 252 249 250 248 248 248 239 238 237 236 233 228 230 230 229 227 234 237
227 227 228 229 216 221 229 237 241 242 244 245 247 242 243 246 244 234 233 234 239 241 251 258 265 266 262 256 253 245 240 234 232 232 233 226 226 224 230 232 230 235 234
218 226 231 228 221 227 235 240 244 242 237 239 239 231 234 240 242 234 237 236 233 242 255 276 281 279 269 258 247 234 225 219 220 231 222 231 224 232 229 229 228 232 233
218 217 229 230 228 227 235 247 253 239 235 230 229 234 233 233 233 237 241 243 245 253 267 289 296 296 274 232 231 231 225 215 214 226 233 229 223 233 240 227 230 236 236
221 222 226 227 218 228 244 255 250 241 230 232 227 225 230 239 240 242 244 248 247 251 280 287 302 314 282 254 234 228 219 209 216 221 224 217 222 236 240 229 224 224 231
221 221 228 233 229 232 243 240 228 236 236 238 242 245 250 246 247 250 241 241 248 256 272 278 302 313 321 254 238 230 223 229 226 230 230 222 222 224 226 213 218 229 227
215 218 227 233 235 238 242 242 234 235 237 235 238 242 255 258 259 255 249 261 262 259 262 272 282 289 318 349 211 219 213 219 215 212 219 225 229 228 226 224 219 234 228
213 218 226 231 238 241 242 247 235 231 231 228 228 236 253 262 268 263 260 259 262 261 267 274 271 270 268 260 219 218 228 235 236 255 227 213 222 232 229 215 215 225 229
221 227 230 232 240 242 243 245 241 232 231 229 228 229 220 235 252 263 271 262 265 264 269 270 264 264 253 251 247 236 241 236 235 234 229 229 237 235 232 223 234 238 245
208 205 218 229 235 239 236 238 235 231 232 237 241 237 242 239 242 269 259 273 262 268 273 266 254 257 254 250 248 246 252 244 231 224 224 228 238 244 244 250 248 239 237
228 229 231 229 238 233 233 232 234 235 236 240 241 246 245 243 245 243 242 265 259 264 277 266 257 253 249 246 245 248 242 239 238 237 236 237 241 248 258 256 257 248 241
222 226 224 224 232 238 236 235 236 242 242 242 242 249 246 245 245 250 245 237 243 262 269 266 262 255 254 250 245 249 245 239 241 246 251 257 260 254 242 233 241 247 239
219 215 220 222 235 240 245 249 248 260 257 244 239 250 246 250 246 250 241 235 234 244 267 269 265 264 263 256 243 241 246 245 246 254 259 256 252 249 240 236 248 255 247
200 207 216 224 222 232 236 240 246 256 262 249 237 240 258 261 252 236 261 240 225 228 266 267 266 260 259 259 253 242 246 241 247 259 258 257 255 254 243 239 247 242 241
182 186 192 203 206 201 210 233 245 243 236 233 236 250 260 247 241 250 246 235 234 253 266 267 261 256 254 255 262 254 249 249 251 259 260 257 256 251 248 247 243 243 241
172 181 200 222 235 230 223 192 236 238 269 259 247 249 241 244 239 246 253 262 264 265 263 264 263 247 251 258 261 256 250 252 262 261 258 251 253 247 244 244 243 242 244
157 160 181 203 219 238 238 220 248 245 248 304 292 265 251 248 256 258 260 266 266 262 258 246 254 263 262 256 247 247 249 253 247 245 243 249 246 244 251 251 246 243 239
135 140 141 147 139 158 200 203 235 248 259 233 280 286 275 267 263 257 257 262 253 252 255 257 258 259 261 253 250 252 260 263 259 258 246 239 249 249 254 256 247 240 243
120 85 126 133 114 126 164 189 183 264 226 243 292 329 334 332 327 298 289 281 266 251 252 255 255 254 250 252 252 259 260 252 252 248 238 229 232 234 244 243 254 251 241
159 92 141 143 132 163 145 167 196 188 178 94 50 57 32 14 9 20 14 6 336 274 250 249 257 260 258 262 269 269 273 275 265 263 251 231 224 253 259 235 237 236 242
161 151 134 214 192 220 197 208 190 203 210 248 289 329 356 20 32 32 25 21 20 358 290 254 246 253 257 258 265 268 271 265 260 248 229 214 234 243 241 240 243 245 254
151 133 119 113 119 105 95 113 203 232 250 249 268 296 313 358 32 33 34 39 44 43 33 22 8 312 272 243 216 201 262 292 284 266 244 253 261 251 250 254 261 269 269
140 127 104 99 117 96 80 83 76 75 80 38 48 5 329 274 15 19 14 11 17 22 32 28 17 2 350 316 260 238 237 248 252 255 256 259 261 266 272 271 271 274 279
169 137 123 114 119 110 92 84 76 73 78 68 70 57 64 67 57 46 56 54 37 5 337 345 8 357 355 333 294 280 268 261 260 256 251 252 260 266 268 268 265 268 278
135 130 121 111 107 106 100 83 73 80 99 72 71 57 53 34 39 36 30 15 11 16 5 345 325 324 315 316 315 301 286 278 271 265 261 260 263 267 270 268 272 275 270
Height
1489 1492 1494 1498 1502 1504 1506 1509 1510 1511 1513 1514 1518 1519 1521 1523 1524 1526 1527 1529 1530 1532 1533 1534 1534 1535 1535 1536 1537 1538 1539 1541 1541 1544 1546 1548 1550 1552 1556 1559 1564 1568 1572
1487 1490 1492 1495 1498 1500 1502 1504 1506 1507 1510 1512 1514 1516 1518 1519 1521 1522 1523 1525 1527 1528 1529 1529 1529 1529 1528 1529 1529 1529 1532 1534 1537 1539 1542 1543 1545 1548 1551 1554 1558 1562 1566
1484 1486 1489 1491 1494 1496 1499 1501 1502 1504 1507 1509 1512 1514 1516 1517 1518 1519 1521 1523 1524 1525 1525 1524 1525 1524 1521 1521 1521 1522 1523 1527 1531 1533 1532 1538 1540 1542 1545 1548 1552 1557 1560
1481 1484 1486 1488 1490 1494 1497 1499 1501 1502 1504 1507 1509 1512 1514 1516 1517 1518 1520 1521 1522 1522 1522 1522 1520 1517 1514 1513 1514 1515 1517 1518 1524 1527 1530 1533 1534 1537 1539 1541 1543 1548 1553
1478 1480 1483 1486 1490 1493 1496 1498 1500 1501 1503 1505 1507 1510 1512 1513 1515 1517 1518 1519 1520 1521 1521 1519 1516 1513 1509 1508 1509 1510 1512 1514 1517 1522 1525 1526 1528 1529 1530 1533 1537 1543 1548
1475 1478 1481 1485 1488 1492 1494 1495 1497 1499 1502 1504 1505 1508 1510 1512 1514 1515 1516 1518 1518 1518 1518 1517 1514 1510 1508 1507 1507 1508 1511 1512 1514 1518 1520 1522 1523 1524 1526 1528 1534 1538 1542
1473 1476 1479 1483 1486 1489 1491 1492 1495 1497 1500 1502 1505 1507 1509 1511 1513 1514 1515 1516 1515 1515 1515 1514 1512 1510 1507 1505 1507 1508 1510 1511 1513 1514 1517 1518 1521 1523 1524 1525 1530 1535 1536
1470 1473 1477 1480 1483 1485 1487 1489 1492 1493 1495 1497 1499 1502 1505 1509 1511 1512 1513 1513 1514 1514 1513 1512 1511 1510 1508 1506 1506 1507 1509 1510 1511 1512 1514 1515 1518 1519 1520 1522 1524 1531 1534
1466 1469 1473 1476 1478 1480 1482 1484 1486 1487 1488 1489 1492 1496 1500 1503 1506 1509 1510 1510 1510 1510 1511 1511 1510 1509 1508 1507 1506 1507 1508 1510 1511 1511 1510 1512 1515 1517 1518 1519 1521 1525 1527
1463 1466 1469 1472 1473 1474 1476 1478 1479 1481 1483 1484 1484 1485 1483 1489 1498 1503 1506 1507 1506 1507 1507 1508 1508 1507 1506 1505 1505 1505 1505 1506 1506 1507 1510 1512 1513 1515 1516 1517 1519 1519 1521
1462 1464 1466 1468 1469 1470 1472 1473 1475 1477 1480 1482 1483 1482 1482 1484 1485 1493 1498 1501 1503 1503 1502 1502 1503 1505 1504 1502 1502 1502 1504 1505 1504 1504 1506 1508 1510 1512 1514 1516 1517 1517 1517
1459 1461 1463 1465 1466 1467 1469 1470 1472 1474 1475 1477 1478 1479 1477 1480 1482 1484 1489 1490 1496 1498 1498 1498 1499 1501 1499 1499 1500 1500 1500 1501 1502 1503 1503 1504 1506 1508 1510 1511 1512 1512 1513
1455 1457 1460 1461 1462 1463 1465 1466 1467 1469 1470 1471 1472 1473 1474 1475 1477 1480 1482 1485 1487 1489 1491 1492 1494 1495 1496 1495 1496 1497 1498 1498 1498 1498 1499 1501 1503 1504 1503 1503 1504 1505 1506
1450 1452 1455 1457 1458 1459 1460 1461 1462 1462 1463 1464 1466 1468 1470 1472 1473 1476 1478 1480 1481 1483 1483 1485 1488 1489 1489 1490 1491 1492 1493 1494 1495 1496 1496 1497 1498 1498 1499 1500 1500 1501 1503
1449 1451 1452 1453 1455 1455 1455 1456 1457 1457 1456 1457 1461 1464 1466 1467 1469 1471 1472 1474 1474 1476 1478 1479 1479 1479 1482 1483 1485 1486 1488 1490 1490 1491 1492 1493 1493 1493 1493 1494 1496 1497 1498
1447 1449 1451 1452 1452 1453 1453 1453 1453 1453 1454 1455 1456 1458 1460 1461 1463 1465 1467 1468 1470 1472 1472 1470 1468 1469 1472 1474 1478 1480 1481 1483 1484 1485 1486 1486 1486 1487 1488 1490 1490 1492 1494
1445 1448 1450 1450 1451 1451 1452 1452 1451 1451 1452 1453 1453 1453 1453 1457 1458 1460 1461 1463 1462 1463 1462 1462 1461 1461 1463 1467 1470 1472 1474 1477 1479 1480 1480 1480 1480 1481 1482 1484 1485 1487 1489
1445 1445 1447 1449 1450 1450 1451 1451 1451 1451 1451 1452 1452 1452 1452 1453 1454 1454 1454 1455 1454 1454 1456 1455 1456 1459 1460 1461 1463 1466 1468 1471 1472 1474 1475 1477 1477 1477 1477 1479 1481 1482 1484
1445 1445 1446 1447 1449 1450 1451 1451 1451 1450 1450 1450 1452 1452 1451 1450 1450 1450 1450 1450 1449 1451 1452 1452 1454 1455 1455 1457 1460 1462 1463 1465 1466 1467 1469 1470 1473 1473 1475 1476 1477 1478 1479
1446 1445 1445 1447 1448 1449 1450 1451 1450 1450 1450 1451 1451 1451 1450 1449 1447 1447 1447 1446 1445 1446 1447 1448 1448 1449 1451 1453 1454 1456 1457 1459 1460 1459 1462 1464 1465 1466 1467 1467 1471 1473 1474
1446 1445 1446 1448 1448 1448 1449 1451 1451 1451 1451 1452 1451 1451 1450 1449 1447 1445 1445 1444 1442 1441 1441 1443 1444 1445 1447 1448 1448 1450 1451 1452 1451 1452 1453 1453 1457 1460 1461 1462 1464 1466 1468
1445 1445 1445 1447 1448 1449 1448 1449 1451 1450 1450 1451 1451 1451 1451 1450 1448 1445 1443 1442 1441 1440 1439 1439 1440 1442 1443 1443 1444 1445 1445 1444 1445 1446 1447 1451 1454 1456 1458 1459 1461 1462 1464
1445 1445 1445 1446 1448 1449 1449 1449 1449 1450 1449 1450 1450 1451 1450 1450 1448 1447 1445 1443 1441 1441 1440 1439 1439 1440 1440 1440 1441 1441 1442 1444 1445 1446 1448 1450 1452 1453 1454 1455 1456 1458 1459
1448 1448 1447 1447 1450 1450 1451 1450 1449 1449 1449 1449 1449 1450 1449 1449 1448 1447 1446 1445 1444 1443 1442 1441 1441 1441 1440 1439 1440 1440 1441 1443 1444 1446 1447 1448 1449 1449 1450 1451 1452 1453 1453
1448 1448 1448 1449 1451 1452 1452 1453 1452 1452 1451 1451 1450 1450 1450 1449 1449 1448 1447 1446 1445 1444 1443 1442 1442 1442 1441 1440 1440 1439 1440 1440 1441 1443 1443 1443 1444 1445 1445 1445 1446 1447 1448
1448 1448 1449 1451 1453 1454 1454 1454 1452 1453 1453 1453 1452 1452 1451 1451 1450 1449 1448 1447 1445 1444 1442 1441 1440 1440 1439 1439 1438 1438 1437 1438 1438 1438 1438 1437 1438 1438 1438 1439 1440 1439 1439